Location: Shenandoah County Park
(38.9356°N, 78.4524°W)
Time: 16:50:56
(UTC-04:00)

Vanguard 2 Rocket - Visible Passes

Search period start: 23 July 2024 00:00
Search period end: 02 August 2024 00:00
Orbit: 555 x 3302 km, 32.9° (Epoch: 23 July)

Date Brightness Start Highest point End Pass type
(mag) Time Alt. Az. Time Alt. Az. Time Alt. Az.
23 Jul 9.7 01:24:14 10° WSW 01:26:05 16° WSW 01:26:05 16° WSW visible
23 Jul 7.8 22:08:58 10° W 22:14:52 49° S 22:20:42 23° SE visible
24 Jul 9.0 00:21:23 10° W 00:26:11 28° SW 00:26:11 28° SW visible
24 Jul 7.4 21:07:07 10° WSW 21:12:10 50° S 21:20:31 10° ESE visible
24 Jul 8.5 23:19:00 10° W 23:25:34 36° SSW 23:26:22 35° S visible
25 Jul 8.0 22:16:55 10° W 22:22:34 40° SSW 22:26:37 27° SE visible
26 Jul 9.4 00:30:04 10° WSW 00:32:06 16° WSW 00:32:06 16° WSW visible
26 Jul 7.6 21:15:00 10° WSW 21:19:51 43° S 21:26:56 12° ESE visible
26 Jul 8.8 23:27:20 10° WSW 23:32:25 26° SSW 23:32:25 26° SSW visible
27 Jul 8.3 22:25:01 10° WSW 22:30:15 30° SSW 22:32:47 26° SSE visible
28 Jul 7.8 21:22:56 10° WSW 21:27:31 34° S 21:33:12 14° SE visible
28 Jul 9.2 23:36:13 10° WSW 23:38:42 16° SW 23:38:42 16° SW visible
29 Jul 8.7 22:33:25 10° WSW 22:37:55 21° SSW 22:39:09 20° S visible
30 Jul 8.2 21:31:03 10° WSW 21:35:09 24° SSW 21:39:39 14° SSE visible
31 Jul 9.1 22:42:49 10° SW 22:45:35 13° SSW 22:45:42 13° SSW visible
01 Aug 8.6 21:39:39 10° SW 21:42:47 16° SSW 21:46:16 11° SSE visible
